SCP
0 0 0 0 0 0 0 0 0 0 0 0 0 0 0 0 0 0 0 0 0 0 0 0 0 0 0 0 0 0 0 0 0 0 0 0 0 0 0 0 0 0 0
0 0 0 0 0 0 0 0 0 0 0 0 0 0 0 0 0 0 0 0 0 0 0 0 0 0 0 0 0 0 0 0 0 0 0 0 0 0 0 0 0 0 0
0 0 0 0 0 0 0 0 0 0 0 0 0 0 0 0 0 0 0 0 0 0 0 0 0 0 0 0 0 0 0 0 0 0 0 0 0 0 0 0 0 0 0
0 0 0 0 0 0 0 0 0 0 0 0 0 0 0 0 0 0 0 0 0 0 0 0 0 0 0 0 0 0 0 0 0 0 0 0 0 0 0 0 0 0 0
0 0 0 0 0 0 0 0 0 0 0 0 0 0 0 0 0 0 0 0 0 0 0 0 0 0 0 0 0 0 0 0 0 0 0 0 0 0 0 0 0 0 0
0 0 0 0 0 0 0 0 0 0 0 0 0 0 0 0 0 0 0 0 0 0 0 0 0 0 0 0 0 0 0 0 0 0 0 0 0 0 0 0 0 0 0
0 0 0 0 0 0 0 0 0 0 0 0 0 0 0 0 0 0 0 0 0 0 0 0 0 0 0 0 0 0 0 0 0 0 0 0 0 0 0 0 0 0 0
-0 -0 -0 -0 0 0 0 0 0 0 0 0 0 0 0 0 0 0 0 0 0 0 0 0 0 0 0 0 0 0 0 0 0 0 0 0 0 0 0 0 0 0 0
-0 -0 -0 -0 -0 -0 0 0 0 0 0 0 0 0 0 0 0 0 0 0 0 0 0 0 0 0 0 0 0 0 0 0 0 0 0 0 0 0 0 0 0 0 0
-0 0 0 0 0 0 0 -0 0 0 0 0 0 0 0 0 0 0 0 0 0 0 0 0 0 0 0 0 0 0 0 0 0 0 0 0 0 0 0 0 0 0 0
0 0 0 0 0 0 0 0 0 0 0 0 0 0 0 0 0 0 0 0 0 0 0 0 0 0 0 0 0 0 0 0 0 0 0 0 0 0 0 0 0 0 0
0 0 0 0 0 0 0 0 0 0 0 0 0 0 0 0 0 0 0 0 0 0 0 0 0 0 0 0 0 0 0 0 0 0 0 0 0 0 0 0 0 0 0
0 0 0 0 0 0 0 0 0 0 0 0 0 0 0 0 0 0 0 0 0 0 0 0 0 0 0 0 0 0 0 0 0 0 0 0 0 0 0 0 0 0 0
0 0 0 0 0 0 0 0 0 0 0 0 0 0 0 0 0 0 0 0 0 0 0 0 0 0 0 0 0 0 0 0 0 0 0 0 0 0 0 0 0 0 0
0 0 0 0 0 0 0 0 0 0 0 0 0 0 0 0 0 0 0 0 0 0 0 0 0 0 0 0 0 0 0 0 0 0 0 0 0 0 0 0 0 0 0
0 0 0 0 0 0 0 0 0 0 0 0 0 0 0 0 0 0 0 0 0 0 0 0 0 0 0 0 0 0 0 0 0 0 0 0 0 0 0 0 0 0 0
0 0 0 0 0 0 0 0 0 0 -0 -0 0 0 0 0 0 0 0 0 0 0 0 0 0 0 0 0 0 0 0 0 0 0 0 0 0 0 0 0 0 0 0
0 0 0 0 0 0 0 0 0 0 0 0 0 0 0 0 0 0 0 0 0 0 0 0 0 0 0 0 0 0 0 0 0 0 0 0 0 0 0 0 0 0 0
0 0 0 0 0 0 0 0 0 0 0 0 0 0 0 0 0 0 0 0 0 0 0 0 0 0 0 0 0 0 0 0 0 0 0 0 0 0 0 0 0 0 0
0 0 0 0 0 0 0 0 0 0 0 0 0 0 0 0 0 0 0 0 0 0 0 0 0 0 0 0 0 0 0 0 0 0 0 0 0 0 0 0 0 0 0
0 0 0 0 0 0 0 0 0 0 0 0 0 0 0 0 0 0 0 0 0 0 0 0 0 0 0 0 0 0 0 0 0 0 0 0 0 0 0 0 0 0 0
0 0 0 0 0 0 0 0 0 0 0 0 0 0 0 0 0 0 0 0 0 0 0 0 0 0 0 0 0 0 0 0 0 0 0 0 0 0 0 0 0 0 0
0 0 0 0 0 0 0 0 0 0 0 0 0 0 0 0 0 0 0 0 0 0 0 0 0 0 0 0 0 0 0 0 0 0 0 0 0 0 0 0 0 0 0
0 0 0 0 0 0 0 0 0 0 0 0 0 0 0 0 0 0 0 0 0 0 0 0 0 0 0 0 0 0 0 0 0 0 0 0 0 0 0 0 0 0 0
0 0 0 0 0 0 0 0 0 0 0 0 0 0 0 0 0 0 0 0 0 0 0 0 0 0 0 0 0 0 0 0 0 0 0 0 0 0 0 0 0 0 0
0 0 0 0 0 0 0 0 0 0 0 0 0 0 0 0 0 0 0 0 0 0 0 0 0 0 0 0 0 0 0 0 0 0 0 0 0 0 0 0 0 0 0
Wind_Speed_500mb
41 47 51 50 50 52 52 57 70 82 92 97 97 100 105 110 108 111 111 112 111 111 111 113 116 108 108 104 96 94 93 94 85 73 77 71 63 54 50 48 47 47 47
42 47 49 53 55 56 56 56 57 66 76 88 94 97 101 108 111 112 110 109 112 113 113 111 117 111 108 109 104 96 93 90 86 78 74 76 72 60 56 50 46 45 49
42 47 49 52 57 58 60 63 63 64 70 77 87 94 99 106 113 115 118 113 116 112 117 118 122 116 113 111 108 104 99 92 88 83 77 76 76 66 60 55 49 48 50
50 55 54 53 57 61 62 62 64 67 73 76 82 90 96 101 107 116 118 113 118 114 102 121 125 118 118 109 107 106 102 97 89 84 81 78 72 58 60 56 53 52 54
54 58 61 58 59 63 64 63 66 66 67 74 78 86 90 97 105 111 116 114 111 117 106 109 123 116 114 107 108 107 104 99 90 85 83 86 66 65 61 55 49 49 48
64 63 63 65 64 67 67 66 65 68 66 65 75 80 89 95 98 103 111 114 117 111 116 105 120 111 110 98 100 105 97 97 89 88 85 86 74 61 57 52 52 48 47
75 76 72 70 72 73 76 76 73 67 67 70 70 76 84 92 96 100 102 105 113 113 114 105 109 110 103 98 91 97 91 86 83 90 92 80 66 56 48 50 51 47 46
84 87 84 82 81 80 81 81 80 77 73 72 76 75 82 88 94 96 93 96 104 113 111 108 107 106 101 95 92 93 91 82 74 73 59 46 47 50 45 47 49 48 40
90 89 87 89 89 87 87 88 87 84 83 80 76 78 77 85 82 86 84 89 97 109 111 110 106 100 99 92 92 92 90 79 76 70 59 51 49 51 48 48 49 42 42
93 90 91 92 92 95 96 97 94 92 87 83 86 83 79 82 79 79 78 85 98 106 103 114 113 93 104 92 92 94 92 76 78 68 52 50 50 51 50 40 35 38 37
88 87 89 97 102 100 101 102 104 100 97 94 90 86 85 76 75 75 75 78 98 100 109 114 119 105 93 86 83 88 87 76 66 53 52 52 51 45 40 39 37 37 37
96 98 98 97 106 111 108 105 105 105 104 101 98 94 88 82 73 74 76 81 89 97 101 108 115 108 94 81 81 78 73 53 58 67 61 52 48 46 43 38 36 35 34
96 101 104 106 108 111 115 113 109 107 103 106 101 99 95 88 72 72 75 79 82 88 97 105 116 100 69 76 77 71 55 57 71 64 57 55 52 46 43 38 34 35 35
103 107 106 105 107 108 110 112 109 109 105 103 103 100 94 89 76 70 74 77 82 84 86 94 79 84 79 81 64 62 58 69 65 58 53 50 49 47 41 35 34 34 30
104 109 107 106 108 110 112 112 114 109 101 100 101 94 84 85 77 70 71 74 79 80 82 75 74 76 72 73 70 66 70 66 59 53 50 50 47 42 35 33 33 30 25
110 113 113 113 112 111 116 122 111 111 105 102 98 81 84 76 76 72 69 63 75 78 74 85 92 91 87 78 73 77 70 62 58 55 52 46 41 36 34 33 28 24 21
104 114 116 108 108 105 102 97 107 113 102 105 102 81 74 80 77 74 69 60 68 75 87 98 94 86 82 80 78 75 72 64 57 53 47 40 37 37 34 27 25 22 20
100 104 102 107 107 108 105 100 95 96 100 96 97 85 69 80 81 65 65 65 71 84 91 85 83 93 94 88 81 72 65 61 55 47 44 39 38 33 27 24 23 22 21
99 102 97 96 106 108 107 102 106 97 94 92 82 86 72 77 72 67 75 83 94 101 96 90 93 88 82 80 72 65 58 53 51 47 42 42 36 27 23 23 24 21 20
106 110 106 103 106 104 98 97 94 89 87 85 78 85 76 67 71 83 95 94 97 95 87 85 83 79 75 72 70 65 59 55 50 47 44 36 27 24 25 26 23 21 20
104 107 100 97 101 97 93 90 92 83 84 84 80 84 84 78 87 100 101 93 93 91 87 83 77 73 71 72 70 65 57 55 52 47 34 27 25 28 26 23 21 18 15
105 109 106 101 96 89 89 84 85 80 81 83 78 83 77 85 91 91 90 88 87 84 80 81 82 79 74 69 64 59 56 55 43 34 28 29 28 25 22 19 16 14 12
90 91 91 88 84 82 79 83 80 78 80 79 77 75 88 91 95 92 90 87 84 82 77 73 71 68 63 60 55 51 43 38 30 25 29 28 25 22 19 17 14 12 10
73 73 74 76 74 73 73 69 65 69 71 68 76 90 98 95 91 87 80 74 74 71 67 68 67 65 60 53 46 41 35 28 27 30 27 25 22 19 16 14 12 9 7
61 62 66 70 69 65 61 58 64 66 69 81 87 92 89 81 77 75 78 79 79 80 76 69 62 55 49 44 40 33 31 32 30 27 24 21 18 15 14 11 9 8 6
57 57 57 57 54 54 55 58 60 64 72 77 79 78 77 77 82 86 87 85 81 76 70 62 55 49 44 39 35 36 32 29 26 24 21 18 14 13 12 12 10 8 5
Wind_Direction_500mb
322 316 309 304 292 285 276 270 267 266 264 262 258 254 258 258 256 253 255 251 248 244 242 244 246 245 245 243 245 245 243 243 240 243 251 256 257 250 246 244 253 259 262
328 329 324 320 310 298 291 283 278 275 270 265 262 259 254 257 259 255 248 245 243 245 241 239 242 246 244 245 241 239 239 241 240 239 244 254 252 248 244 248 252 259 258
328 328 331 334 328 315 302 298 289 282 277 271 263 260 257 254 256 258 258 249 246 249 245 240 244 244 243 242 242 237 240 242 241 240 242 248 246 244 245 251 255 261 255
336 336 330 327 328 325 311 300 297 291 284 276 270 263 259 256 255 258 259 258 247 249 253 245 244 242 244 242 239 238 239 243 240 240 245 249 242 235 246 248 248 262 259
337 337 337 330 324 326 325 309 301 294 289 284 274 269 264 259 256 257 257 257 255 250 255 254 242 242 247 247 243 241 238 241 242 241 242 236 233 246 246 243 251 264 247
332 331 332 332 327 322 324 325 313 305 297 292 282 271 268 265 262 259 260 261 258 255 250 255 246 243 244 245 245 245 248 246 241 242 240 233 248 239 248 243 256 243 231
326 327 328 327 328 328 323 322 324 314 304 297 291 281 269 266 264 262 260 259 260 259 254 252 248 245 245 244 240 239 247 246 244 244 235 242 246 249 248 251 246 236 231
321 322 322 324 322 324 324 324 321 319 310 300 295 288 278 269 266 266 264 262 261 257 254 252 250 248 253 242 234 235 240 239 242 234 230 233 236 240 241 240 249 226 221
319 320 320 319 318 319 319 321 323 318 313 307 297 291 281 276 267 265 266 264 262 257 254 253 253 253 248 240 234 231 229 219 232 223 225 229 234 238 233 227 209 217 216
316 314 315 315 316 317 318 318 319 320 312 308 302 295 287 282 269 262 266 265 264 259 255 252 253 251 252 233 232 230 223 231 223 228 220 226 215 223 215 212 217 218 218
310 307 307 308 310 311 313 315 315 315 315 309 303 297 289 282 274 260 259 263 265 262 258 251 248 245 247 234 238 226 230 218 213 223 210 205 202 199 205 208 213 221 226
305 302 300 298 299 303 307 309 311 312 311 310 306 299 292 284 275 260 254 256 262 265 262 254 247 244 240 229 219 217 210 210 210 196 191 189 195 196 202 206 211 220 230
302 299 298 298 298 299 301 304 306 308 308 307 305 300 294 285 278 266 257 257 259 260 259 258 251 237 227 206 199 203 191 195 196 195 190 189 193 195 197 200 211 224 233
296 296 299 300 300 301 300 300 301 302 305 304 302 297 293 284 278 270 264 259 258 256 252 247 238 210 199 191 181 183 191 195 196 190 187 189 192 190 191 202 215 224 233
294 297 298 298 299 299 297 297 297 295 297 299 297 294 287 280 279 276 270 263 257 250 241 234 213 192 179 179 179 190 190 186 186 190 192 190 190 193 194 207 214 223 229
293 294 296 298 297 296 295 296 295 296 296 295 294 288 280 273 272 270 271 265 253 241 222 197 186 182 184 184 186 182 183 186 188 190 188 192 193 196 198 203 210 220 230
289 291 292 293 292 292 291 291 294 296 295 293 292 288 267 267 264 265 264 255 232 225 210 194 184 186 185 186 187 187 182 183 186 187 188 189 194 194 195 197 207 220 243
288 289 288 289 289 290 289 287 287 288 289 287 289 287 268 261 260 257 251 227 205 205 198 195 196 193 186 184 186 184 179 180 182 179 183 183 191 190 186 205 224 237 236
288 286 286 284 285 285 285 285 285 281 278 276 279 282 269 258 251 247 233 210 199 196 195 199 195 190 186 181 177 177 177 178 178 180 178 181 184 191 202 220 229 231 235
291 291 289 287 287 283 280 283 278 275 269 265 262 264 257 238 223 216 205 200 198 198 196 193 190 187 180 175 171 172 173 176 173 174 176 177 193 208 217 220 223 229 239
293 291 289 287 282 279 278 277 271 269 259 255 251 250 245 236 210 197 198 199 197 196 193 185 181 177 176 172 174 175 173 170 174 172 180 193 199 207 211 217 221 230 242
291 289 288 284 283 280 278 270 262 259 251 246 241 236 227 210 197 196 196 192 191 189 185 179 173 173 174 175 171 164 169 171 174 179 180 191 199 204 209 217 222 228 231
291 288 287 285 281 282 275 263 261 254 246 238 227 212 190 191 193 195 192 186 184 179 176 172 169 167 164 159 156 162 171 176 171 171 189 193 194 197 200 206 210 217 233
292 289 288 287 284 276 270 264 255 240 223 207 195 190 189 189 189 186 179 170 164 161 160 159 157 154 151 155 162 166 164 159 173 183 185 187 188 189 195 202 211 228 234
297 295 291 284 276 270 259 244 232 214 202 194 191 188 184 177 168 164 158 155 152 149 147 146 148 154 159 161 157 152 164 176 176 178 178 179 183 189 201 210 210 210 210
300 294 285 275 265 250 236 219 205 195 188 185 181 174 166 161 156 151 148 147 145 145 148 152 154 154 152 146 156 167 171 173 175 176 180 183 187 191 194 189 183 173 171
Wind_Speed_850mb
41 47 51 50 50 52 52 57 70 82 92 97 97 100 105 110 108 111 111 112 111 111 111 113 116 108 108 104 96 94 93 94 85 73 77 71 63 54 50 48 47 47 47
42 47 49 53 55 56 56 56 57 66 76 88 94 97 101 108 111 112 110 109 112 113 113 111 117 111 108 109 104 96 93 90 86 78 74 76 72 60 56 50 46 45 49
42 47 49 52 57 58 60 63 63 64 70 77 87 94 99 106 113 115 118 113 116 112 117 118 122 116 113 111 108 104 99 92 88 83 77 76 76 66 60 55 49 48 50
50 55 54 53 57 61 62 62 64 67 73 76 82 90 96 101 107 116 118 113 118 114 102 121 125 118 118 109 107 106 102 97 89 84 81 78 72 58 60 56 53 52 54
54 58 61 58 59 63 64 63 66 66 67 74 78 86 90 97 105 111 116 114 111 117 106 109 123 116 114 107 108 107 104 99 90 85 83 86 66 65 61 55 49 49 48
64 63 63 65 64 67 67 66 65 68 66 65 75 80 89 95 98 103 111 114 117 111 116 105 120 111 110 98 100 105 97 97 89 88 85 86 74 61 57 52 52 48 47
75 76 72 70 72 73 76 76 73 67 67 70 70 76 84 92 96 100 102 105 113 113 114 105 109 110 103 98 91 97 91 86 83 90 92 80 66 56 48 50 51 47 46
84 87 84 82 81 80 81 81 80 77 73 72 76 75 82 88 94 96 93 96 104 113 111 108 107 106 101 95 92 93 91 82 74 73 59 46 47 50 45 47 49 48 40
90 89 87 89 89 87 87 88 87 84 83 80 76 78 77 85 82 86 84 89 97 109 111 110 106 100 99 92 92 92 90 79 76 70 59 51 49 51 48 48 49 42 42
93 90 91 92 92 95 96 97 94 92 87 83 86 83 79 82 79 79 78 85 98 106 103 114 113 93 104 92 92 94 92 76 78 68 52 50 50 51 50 40 35 38 37
88 87 89 97 102 100 101 102 104 100 97 94 90 86 85 76 75 75 75 78 98 100 109 114 119 105 93 86 83 88 87 76 66 53 52 52 51 45 40 39 37 37 37
96 98 98 97 106 111 108 105 105 105 104 101 98 94 88 82 73 74 76 81 89 97 101 108 115 108 94 81 81 78 73 53 58 67 61 52 48 46 43 38 36 35 34
96 101 104 106 108 111 115 113 109 107 103 106 101 99 95 88 72 72 75 79 82 88 97 105 116 100 69 76 77 71 55 57 71 64 57 55 52 46 43 38 34 35 35
103 107 106 105 107 108 110 112 109 109 105 103 103 100 94 89 76 70 74 77 82 84 86 94 79 84 79 81 64 62 58 69 65 58 53 50 49 47 41 35 34 34 30
104 109 107 106 108 110 112 112 114 109 101 100 101 94 84 85 77 70 71 74 79 80 82 75 74 76 72 73 70 66 70 66 59 53 50 50 47 42 35 33 33 30 25
110 113 113 113 112 111 116 122 111 111 105 102 98 81 84 76 76 72 69 63 75 78 74 85 92 91 87 78 73 77 70 62 58 55 52 46 41 36 34 33 28 24 21
104 114 116 108 108 105 102 97 107 113 102 105 102 81 74 80 77 74 69 60 68 75 87 98 94 86 82 80 78 75 72 64 57 53 47 40 37 37 34 27 25 22 20
100 104 102 107 107 108 105 100 95 96 100 96 97 85 69 80 81 65 65 65 71 84 91 85 83 93 94 88 81 72 65 61 55 47 44 39 38 33 27 24 23 22 21
99 102 97 96 106 108 107 102 106 97 94 92 82 86 72 77 72 67 75 83 94 101 96 90 93 88 82 80 72 65 58 53 51 47 42 42 36 27 23 23 24 21 20
106 110 106 103 106 104 98 97 94 89 87 85 78 85 76 67 71 83 95 94 97 95 87 85 83 79 75 72 70 65 59 55 50 47 44 36 27 24 25 26 23 21 20
104 107 100 97 101 97 93 90 92 83 84 84 80 84 84 78 87 100 101 93 93 91 87 83 77 73 71 72 70 65 57 55 52 47 34 27 25 28 26 23 21 18 15
105 109 106 101 96 89 89 84 85 80 81 83 78 83 77 85 91 91 90 88 87 84 80 81 82 79 74 69 64 59 56 55 43 34 28 29 28 25 22 19 16 14 12
90 91 91 88 84 82 79 83 80 78 80 79 77 75 88 91 95 92 90 87 84 82 77 73 71 68 63 60 55 51 43 38 30 25 29 28 25 22 19 17 14 12 10
73 73 74 76 74 73 73 69 65 69 71 68 76 90 98 95 91 87 80 74 74 71 67 68 67 65 60 53 46 41 35 28 27 30 27 25 22 19 16 14 12 9 7
61 62 66 70 69 65 61 58 64 66 69 81 87 92 89 81 77 75 78 79 79 80 76 69 62 55 49 44 40 33 31 32 30 27 24 21 18 15 14 11 9 8 6
57 57 57 57 54 54 55 58 60 64 72 77 79 78 77 77 82 86 87 85 81 76 70 62 55 49 44 39 35 36 32 29 26 24 21 18 14 13 12 12 10 8 5
Wind_Direction_850mb
322 316 309 304 292 285 276 270 267 266 264 262 258 254 258 258 256 253 255 251 248 244 242 244 246 245 245 243 245 245 243 243 240 243 251 256 257 250 246 244 253 259 262
328 329 324 320 310 298 291 283 278 275 270 265 262 259 254 257 259 255 248 245 243 245 241 239 242 246 244 245 241 239 239 241 240 239 244 254 252 248 244 248 252 259 258
328 328 331 334 328 315 302 298 289 282 277 271 263 260 257 254 256 258 258 249 246 249 245 240 244 244 243 242 242 237 240 242 241 240 242 248 246 244 245 251 255 261 255
336 336 330 327 328 325 311 300 297 291 284 276 270 263 259 256 255 258 259 258 247 249 253 245 244 242 244 242 239 238 239 243 240 240 245 249 242 235 246 248 248 262 259
337 337 337 330 324 326 325 309 301 294 289 284 274 269 264 259 256 257 257 257 255 250 255 254 242 242 247 247 243 241 238 241 242 241 242 236 233 246 246 243 251 264 247
332 331 332 332 327 322 324 325 313 305 297 292 282 271 268 265 262 259 260 261 258 255 250 255 246 243 244 245 245 245 248 246 241 242 240 233 248 239 248 243 256 243 231
326 327 328 327 328 328 323 322 324 314 304 297 291 281 269 266 264 262 260 259 260 259 254 252 248 245 245 244 240 239 247 246 244 244 235 242 246 249 248 251 246 236 231
321 322 322 324 322 324 324 324 321 319 310 300 295 288 278 269 266 266 264 262 261 257 254 252 250 248 253 242 234 235 240 239 242 234 230 233 236 240 241 240 249 226 221
319 320 320 319 318 319 319 321 323 318 313 307 297 291 281 276 267 265 266 264 262 257 254 253 253 253 248 240 234 231 229 219 232 223 225 229 234 238 233 227 209 217 216
316 314 315 315 316 317 318 318 319 320 312 308 302 295 287 282 269 262 266 265 264 259 255 252 253 251 252 233 232 230 223 231 223 228 220 226 215 223 215 212 217 218 218
310 307 307 308 310 311 313 315 315 315 315 309 303 297 289 282 274 260 259 263 265 262 258 251 248 245 247 234 238 226 230 218 213 223 210 205 202 199 205 208 213 221 226
305 302 300 298 299 303 307 309 311 312 311 310 306 299 292 284 275 260 254 256 262 265 262 254 247 244 240 229 219 217 210 210 210 196 191 189 195 196 202 206 211 220 230
302 299 298 298 298 299 301 304 306 308 308 307 305 300 294 285 278 266 257 257 259 260 259 258 251 237 227 206 199 203 191 195 196 195 190 189 193 195 197 200 211 224 233
296 296 299 300 300 301 300 300 301 302 305 304 302 297 293 284 278 270 264 259 258 256 252 247 238 210 199 191 181 183 191 195 196 190 187 189 192 190 191 202 215 224 233
294 297 298 298 299 299 297 297 297 295 297 299 297 294 287 280 279 276 270 263 257 250 241 234 213 192 179 179 179 190 190 186 186 190 192 190 190 193 194 207 214 223 229
293 294 296 298 297 296 295 296 295 296 296 295 294 288 280 273 272 270 271 265 253 241 222 197 186 182 184 184 186 182 183 186 188 190 188 192 193 196 198 203 210 220 230
289 291 292 293 292 292 291 291 294 296 295 293 292 288 267 267 264 265 264 255 232 225 210 194 184 186 185 186 187 187 182 183 186 187 188 189 194 194 195 197 207 220 243
288 289 288 289 289 290 289 287 287 288 289 287 289 287 268 261 260 257 251 227 205 205 198 195 196 193 186 184 186 184 179 180 182 179 183 183 191 190 186 205 224 237 236
288 286 286 284 285 285 285 285 285 281 278 276 279 282 269 258 251 247 233 210 199 196 195 199 195 190 186 181 177 177 177 178 178 180 178 181 184 191 202 220 229 231 235
291 291 289 287 287 283 280 283 278 275 269 265 262 264 257 238 223 216 205 200 198 198 196 193 190 187 180 175 171 172 173 176 173 174 176 177 193 208 217 220 223 229 239
293 291 289 287 282 279 278 277 271 269 259 255 251 250 245 236 210 197 198 199 197 196 193 185 181 177 176 172 174 175 173 170 174 172 180 193 199 207 211 217 221 230 242
291 289 288 284 283 280 278 270 262 259 251 246 241 236 227 210 197 196 196 192 191 189 185 179 173 173 174 175 171 164 169 171 174 179 180 191 199 204 209 217 222 228 231
291 288 287 285 281 282 275 263 261 254 246 238 227 212 190 191 193 195 192 186 184 179 176 172 169 167 164 159 156 162 171 176 171 171 189 193 194 197 200 206 210 217 233
292 289 288 287 284 276 270 264 255 240 223 207 195 190 189 189 189 186 179 170 164 161 160 159 157 154 151 155 162 166 164 159 173 183 185 187 188 189 195 202 211 228 234
297 295 291 284 276 270 259 244 232 214 202 194 191 188 184 177 168 164 158 155 152 149 147 146 148 154 159 161 157 152 164 176 176 178 178 179 183 189 201 210 210 210 210
300 294 285 275 265 250 236 219 205 195 188 185 181 174 166 161 156 151 148 147 145 145 148 152 154 154 152 146 156 167 171 173 175 176 180 183 187 191 194 189 183 173 171